Tracking 19170 objects as of 22-May-2018
HD Live streaming from Space Station
objects crossing your sky now

COSMOS 2242

Track COSMOS 2242 now!
10-day predictions
COSMOS 2242 is classified as:


NORAD ID: 22626
Int'l Code: 1993-024A
Perigee: 597.5 km
Apogee: 626.3 km
Inclination: 82.5 °
Period: 96.8 minutes
Semi major axis: 6982 km
RCS: 9.205 m2 (large)
Launch date: April 16, 1993
Source: Commonwealth of Independent States (former USSR) (CIS)
Launch site: PLESETSK MISSILE AND SPACE COMPLEX (PKMTR)

Cosmos 2242 was a Russian ELINT (Electronic and Signals Intelligence) satellite.
aabbcc
Your satellite tracking list
Your tracking list is empty




NASA's NSSDC Master Catalog

Two Line Element Set (TLE):
1 22626U 93024A   18141.98012413  .00000187  00000-0  17651-4 0  9999
2 22626  82.5226  82.3931 0020621  77.1965 283.1555 14.87801351356525
Source of the keplerian elements: AFSPC